Regional Weather Roundup
Issued by NWS

Home | Current Version | Previous Version | Text Only | Print | Product List | Glossary Off
Versions: 1 2 3 4 5 6 7 8 9 10 11 12 13 14 15 16 17 18 19 20 21 22 23 24 25 26 27 28 29 30 31 32 33 34 35 36 37 38 39 40 41 42 43 44 45 46 47 48 49 50

088
ASUS45 KPSR 251710
RWRAZ

ARIZONA HOURLY REGIONAL WEATHER ROUNDUP
NATIONAL WEATHER SERVICE PHOENIX AZ
1000 AM MST SUN SEP 25 2016

NOTE: FAIR INDICATES FEW OR NO CLOUDS BELOW 12,000 FEET WITH NO
SIGNIFICANT WEATHER AND/OR OBSTRUCTIONS TO VISIBILITY.

AZZ001>003-036-251800-
NORTHWEST ARIZONA

CITY           SKY/WX    TMP DP  RH WIND       PRES   REMARKS
BULLHEAD CITY  SUNNY     81  37  21 N25G33    30.13S
KINGMAN        SUNNY     72  32  23 N14       30.26S
$$

AZZ004>008-015-016-018-251800-
NORTH CENTRAL ARIZONA

CITY           SKY/WX    TMP DP  RH WIND       PRES   REMARKS
GRAND CANYON   SUNNY     57  31  37 NE18G29   30.44R
PRESCOTT       SUNNY     66  32  28 NE22G30   30.28S
FLAGSTAFF      SUNNY     54  33  45 NE23G36   30.38R
PAYSON         SUNNY     66  34  30 NE17G28   30.29R
PAGE           SUNNY     67  33  28 N7        30.39R
$$

AZZ009>014-017-251800-
NORTHEAST ARIZONA

CITY           SKY/WX    TMP DP  RH WIND       PRES   REMARKS
WINSLOW        SUNNY     63  35  35 N5        30.35S
SAINT JOHNS    SUNNY     59  31  34 CALM      30.33S
WINDOW ROCK    SUNNY     61  32  33 NE13G18   30.40S
SHOW LOW       SUNNY     57  28  33 N10       30.36R
$$

AZZ023-251800-
GREATER PHOENIX AREA

CITY           SKY/WX    TMP DP  RH WIND       PRES   REMARKS
PHOENIX        SUNNY     86  35  16 NE13G18   30.01R
BUCKEYE        SUNNY     84  34  16 NE9G18    30.03S
GLENDALE       SUNNY     88  36  15 N13       30.03S
LUKE AFB       SUNNY     85  38  18 N14       30.00F
DEER VALLEY    SUNNY     85  34  16 NE13      30.03R
SCOTTSDALE     SUNNY     85  34  16 NE17G25   30.04S
MESA-FALCON    SUNNY    N/A N/A N/A N12G17    29.99F
MESA-GATEWAY   SUNNY     84  34  16 CALM      30.02S
CHANDLER       SUNNY     84  36  17 N16       30.01S
$$

AZZ027-028-251800-
SOUTHWEST MARICOPA COUNTY AND PINAL COUNTY

CITY           SKY/WX    TMP DP  RH WIND       PRES   REMARKS
CASA GRANDE    SUNNY     81  34  18 NW5       30.04S
GILA BEND      FAIR      85  34  16 NE12      29.99S
$$

AZZ503-504-507>509-251800-
SOUTHEAST ARIZONA

CITY           SKY/WX    TMP DP  RH WIND       PRES   REMARKS
TUCSON         SUNNY     78  33  19 N3        30.08R
DAVIS-MONTHAN  SUNNY     78  33  19 VRB2      30.07R
RYAN FIELD     SUNNY     75  32  20 CALM      30.07S
NOGALES        SUNNY     72  33  24 SW5       30.12R
SIERRA VISTA   CLOUDY    71  30  21 VRB3      30.19R
DOUGLAS        MOSUNNY   75  33  21 SW7       30.14F
SAFFORD        SUNNY     73  35  25 VRB3      30.12S
$$

AZZ020-021-025-026-031-251800-
SOUTHWEST ARIZONA

CITY           SKY/WX    TMP DP  RH WIND       PRES   REMARKS
YUMA           SUNNY     88  36  15 N15       29.99R
$$

CAZ031-033-041-043-047-048-061-251800-
SOUTHERN CALIFORNIA

CITY           SKY/WX    TMP DP  RH WIND       PRES   REMARKS
DOWNTOWN L.A.  SUNNY     86  41  20 CALM      30.00F
L.A. AIRPORT   SUNNY     86  33  15 VRB3      30.01S
SAN DIEGO      SUNNY     83  49  30 NW3       30.00F
BURBANK        SUNNY     83  37  19 VRB3      30.04S
ONTARIO        SUNNY     90  26  10 NE18G39   30.03R
RIVERSIDE      SUNNY     89  27  10 E9        30.05S
PALM SPRINGS   SUNNY     89  31  12 NW7       30.10S
EL CENTRO NAS  LGT RAIN  90  38  16 N18G28    30.03S
IMPERIAL       SUNNY     91  40  16 N18G26    30.00F
BLYTHE         SUNNY     88  35  15 N20G31    30.04S
NEEDLES        SUNNY     86  36  16 NE26G33   30.13S
$$

NVZ020-UTZ003-251800-
SOUTHERN NEVADA-UTAH

CITY           SKY/WX    TMP DP  RH WIND       PRES   REMARKS
LAS VEGAS      SUNNY     78  29  16 NE14G20   30.27S
SALT LAKE CITY SUNNY     58  46  64 N7        30.49R
$$

NMZ009-TXZ055-251800-
NEW MEXICO-WEST TEXAS

CITY           SKY/WX    TMP DP  RH WIND       PRES   REMARKS
ALBUQUERQUE    PTSUNNY   66  33  29 E26G36    30.34S
EL PASO        PTSUNNY   75  32  20 N13       30.15S
$$


........................KEY........................
SKY/WX - SKY CONDITION/WEATHER
TMP    - TEMPERATURE IN FAHRENHEIT
DP     - DEW POINT IN FAHRENHEIT
RH     - RELATIVE HUMIDITY IN PERCENT
WIND   - DIRECTION AND SPEED IN MILES PER HOUR (MPH)
VRB    - VARIABLE WIND DIRECTION
PRES   - MEAN SEA LEVEL PRESSURE IN INCHES OF MERCURY
         F - FALLING PRESSURE   R - RISING PRESSURE
         S - STEADY PRESSURE
VSB    - VISIBILITY IN MILES
HX     - HEAT INDEX IN FAHRENHEIT
WCI    - WIND CHILL INDEX IN FAHRENHEIT
TC     - TEMPERATURE IN CELSIUS WHICH IS ALSO KNOWN AS
         TEMPERATURE IN CENTIGRADE
AFB    - AIR FORCE BASE
         LUKE AFB IS LUKE AIR FORCE BASE
         DAVIS-MONTHAN IS DAVIS-MONTHAN AIR FORCE BASE
NAS    - NAVAL AIR STATION
         EL CENTRO NAS IS EL CENTRO NAVAL AIR STATION
N/A    - NOT AVAILABLE





USA.gov is the U.S. government's official web portal to all federal, state and local government web resources and services.